When you browse on this site, cookies collect data to enhance your experience and personalize the content and advertising you see.
Visit our Privacy Policy to learn more. By continuing to use the site, you agree to this use of cookies and data.
  • In Hungary
  • List of Countries
  • For 7 days
  • Water Temperature
  • Satellite Maps
  • Weather Map
  • News
  • Weather Widgets
  • user-avatar
    Login

    Hourly Weather Verovka

    Today, 21 November, Wednesday

    Time Temperature Precipitation Wind Pressure Humidity
    00:00 -4°C° 0 mm 2 mps 731 mmHg 95%
    01:00 -4°C° 0 mm 2 mps 731 mmHg 95%
    02:00 -4°C° 0 mm 2 mps 730 mmHg 94%
    03:00 -5°C° 0 mm 3 mps 730 mmHg 93%
    04:00 -5°C° 0 mm 3 mps 729 mmHg 94%
    05:00 -6°C° 0 mm 3 mps 729 mmHg 92%
    06:00 -7°C° 0 mm 4 mps 728 mmHg 91%
    07:00 -7°C° 0 mm 5 mps 728 mmHg 89%
    08:00 -7°C° 0 mm 5 mps 727 mmHg 88%
    09:00 -7°C° 0 mm 5 mps 726 mmHg 87%
    10:00 -8°C° 0 mm 6 mps 725 mmHg 85%
    11:00 -8°C° 0.3 mm 6 mps 725 mmHg 86%
    12:00 -8°C° 0.3 mm 6 mps 724 mmHg 87%
    13:00 -8°C° 0.3 mm 6 mps 724 mmHg 88%
    14:00 -8°C° 0.4 mm 6 mps 723 mmHg 88%
    15:00 -8°C° 0.4 mm 6 mps 723 mmHg 88%
    16:00 -7°C° 0 mm 5 mps 722 mmHg 87%
    17:00 -7°C° 0.1 mm 5 mps 722 mmHg 87%
    18:00 -7°C° 0.1 mm 5 mps 722 mmHg 88%
    19:00 -7°C° 0.1 mm 5 mps 721 mmHg 89%
    20:00 -7°C° 0.1 mm 5 mps 721 mmHg 89%
    21:00 -7°C° 0.1 mm 5 mps 721 mmHg 90%
    22:00 -7°C° 0.1 mm 5 mps 721 mmHg 90%
    23:00 -7°C° 0.1 mm 5 mps 721 mmHg 89%

    Tomorrow, 22 November, Thursday

    Time Temperature Precipitation Wind Pressure Humidity
    00:00 -8°C° 0.1 mm 5 mps 721 mmHg 88%
    01:00 -8°C° 0.1 mm 5 mps 721 mmHg 88%
    02:00 -10°C° 0 mm 5 mps 721 mmHg 88%
    03:00 -10°C° 0 mm 5 mps 721 mmHg 89%
    04:00 -11°C° 0 mm 5 mps 721 mmHg 90%
    05:00 -11°C° 0 mm 5 mps 721 mmHg 89%
    06:00 -11°C° 0 mm 5 mps 721 mmHg 89%
    07:00 -12°C° 0 mm 5 mps 721 mmHg 88%
    08:00 -11°C° 0 mm 6 mps 722 mmHg 86%
    09:00 -11°C° 0 mm 6 mps 722 mmHg 84%
    10:00 -11°C° 0 mm 6 mps 722 mmHg 82%
    11:00 -11°C° 0 mm 6 mps 722 mmHg 81%
    12:00 -10°C° 0 mm 5 mps 722 mmHg 80%
    13:00 -10°C° 0 mm 5 mps 721 mmHg 79%
    14:00 -10°C° 0 mm 5 mps 721 mmHg 80%
    15:00 -10°C° 0 mm 5 mps 721 mmHg 81%
    16:00 -10°C° 0 mm 5 mps 721 mmHg 82%
    17:00 -10°C° 0 mm 6 mps 720 mmHg 82%
    18:00 -11°C° 0 mm 7 mps 720 mmHg 83%
    19:00 -11°C° 0 mm 8 mps 719 mmHg 83%
    20:00 -11°C° 0.1 mm 8 mps 719 mmHg 83%
    21:00 -11°C° 0.1 mm 9 mps 718 mmHg 83%
    22:00 -11°C° 0.1 mm 9 mps 718 mmHg 84%
    23:00 -11°C° 0.2 mm 9 mps 717 mmHg 84%

    Day after tomorrow, 23 November, Friday

    Time Temperature Precipitation Wind Pressure Humidity
    00:00 -11°C° 0.2 mm 9 mps 717 mmHg 85%
    01:00 -11°C° 0.2 mm 8 mps 716 mmHg 86%
    02:00 -11°C° 0.2 mm 8 mps 716 mmHg 87%
    03:00 -11°C° 0.2 mm 7 mps 716 mmHg 88%
    04:00 -10°C° 0.2 mm 6 mps 716 mmHg 89%
    05:00 -10°C° 0.6 mm 6 mps 715 mmHg 91%
    06:00 -10°C° 0.6 mm 5 mps 715 mmHg 92%
    07:00 -9°C° 0.6 mm 4 mps 715 mmHg 94%
    08:00 -10°C° 0.6 mm 4 mps 715 mmHg 93%
    09:00 -10°C° 0.6 mm 4 mps 715 mmHg 92%
    10:00 -11°C° 0.6 mm 4 mps 715 mmHg 91%
    11:00 -12°C° 0.2 mm 5 mps 716 mmHg 89%
    12:00 -14°C° 0.2 mm 6 mps 716 mmHg 87%
    13:00 -15°C° 0.2 mm 7 mps 717 mmHg 86%
    14:00 -15°C° 0 mm 7 mps 717 mmHg 83%
    15:00 -16°C° 0 mm 8 mps 718 mmHg 81%
    16:00 -17°C° 0 mm 8 mps 719 mmHg 79%
    17:00 -17°C° 0 mm 8 mps 720 mmHg 80%
    18:00 -18°C° 0 mm 8 mps 721 mmHg 81%
    19:00 -18°C° 0 mm 7 mps 722 mmHg 82%
    20:00 -19°C° 0 mm 7 mps 722 mmHg 84%
    21:00 -19°C° 0 mm 7 mps 723 mmHg 86%
    22:00 -18°C° 0 mm 6 mps 724 mmHg 88%
    23:00 -20°C° 0 mm 6 mps 725 mmHg 90%

    24 November, Saturday

    Time Temperature Precipitation Wind Pressure Humidity
    00:00 -20°C° 0 mm 6 mps 725 mmHg 91%
    01:00 -19°C° 0 mm 5 mps 726 mmHg 92%
    02:00 -18°C° 0 mm 5 mps 727 mmHg 92%
    03:00 -18°C° 0 mm 5 mps 727 mmHg 92%
    04:00 -18°C° 0 mm 5 mps 728 mmHg 92%
    05:00 -17°C° 0 mm 5 mps 728 mmHg 92%
    06:00 -17°C° 0 mm 5 mps 729 mmHg 92%
    07:00 -17°C° 0 mm 5 mps 729 mmHg 93%
    08:00 -15°C° 0 mm 5 mps 729 mmHg 92%
    09:00 -14°C° 0 mm 5 mps 730 mmHg 91%
    10:00 -13°C° 0 mm 5 mps 730 mmHg 90%
    11:00 -14°C° 0 mm 6 mps 730 mmHg 89%
    12:00 -12°C° 0 mm 6 mps 730 mmHg 89%
    13:00 -11°C° 0 mm 6 mps 730 mmHg 88%
    14:00 -13°C° 0 mm 7 mps 730 mmHg 88%
    15:00 -13°C° 0 mm 7 mps 730 mmHg 88%
    16:00 -13°C° 0 mm 8 mps 730 mmHg 88%
    17:00 -13°C° 0 mm 8 mps 730 mmHg 87%
    18:00 -12°C° 0 mm 8 mps 730 mmHg 87%
    19:00 -12°C° 0 mm 9 mps 730 mmHg 87%
    20:00 -12°C° 0.1 mm 8 mps 730 mmHg 86%
    21:00 -11°C° 0.1 mm 8 mps 730 mmHg 86%
    22:00 -11°C° 0.1 mm 8 mps 730 mmHg 86%
    23:00 -11°C° 0.1 mm 8 mps 730 mmHg 86%

    25 November, Sunday

    Time Temperature Precipitation Wind Pressure Humidity
    00:00 -11°C° 0.1 mm 7 mps 730 mmHg 86%
    01:00 -9°C° 0.1 mm 7 mps 730 mmHg 87%
    02:00 -11°C° 0.1 mm 7 mps 730 mmHg 87%
    03:00 -11°C° 0.1 mm 7 mps 730 mmHg 87%
    04:00 -11°C° 0.1 mm 7 mps 730 mmHg 88%
    05:00 -11°C° 0 mm 7 mps 729 mmHg 87%
    06:00 -11°C° 0 mm 8 mps 729 mmHg 87%
    07:00 -11°C° 0 mm 8 mps 729 mmHg 87%
    08:00 -11°C° 0 mm 8 mps 729 mmHg 86%
    09:00 -11°C° 0 mm 8 mps 728 mmHg 86%
    10:00 -11°C° 0 mm 8 mps 728 mmHg 86%
    11:00 -11°C° 0.1 mm 8 mps 728 mmHg 87%
    12:00 -11°C° 0.1 mm 8 mps 728 mmHg 87%
    13:00 -11°C° 0.1 mm 9 mps 728 mmHg 88%
    14:00 -10°C° 0.2 mm 8 mps 728 mmHg 88%
    15:00 -10°C° 0.2 mm 8 mps 728 mmHg 88%
    16:00 -10°C° 0.2 mm 8 mps 728 mmHg 88%
    17:00 -9°C° 0.1 mm 7 mps 729 mmHg 89%
    18:00 -9°C° 0.1 mm 6 mps 729 mmHg 90%
    19:00 -8°C° 0.1 mm 6 mps 730 mmHg 90%
    20:00 -7°C° 0 mm 5 mps 730 mmHg 91%
    21:00 -8°C° 0 mm 5 mps 730 mmHg 92%
    22:00 -8°C° 0 mm 4 mps 730 mmHg 93%
    23:00 -8°C° 0 mm 4 mps 730 mmHg 94%

    26 November, Monday

    Time Temperature Precipitation Wind Pressure Humidity
    00:00 -8°C° 0 mm 3 mps 731 mmHg 94%
    01:00 -8°C° 0 mm 3 mps 731 mmHg 95%
    02:00 -8°C° 0 mm 3 mps 731 mmHg 95%
    03:00 -9°C° 0 mm 3 mps 731 mmHg 95%
    04:00 -9°C° 0 mm 3 mps 731 mmHg 96%
    05:00 -8°C° 0 mm 2 mps 731 mmHg 96%
    06:00 -8°C° 0 mm 2 mps 730 mmHg 96%
    07:00 -8°C° 0 mm 2 mps 730 mmHg 96%
    08:00 -8°C° 0.1 mm 3 mps 730 mmHg 95%
    09:00 -8°C° 0.1 mm 3 mps 730 mmHg 95%
    10:00 -7°C° 0.1 mm 3 mps 730 mmHg 94%
    11:00 -8°C° 0.2 mm 4 mps 730 mmHg 94%
    12:00 -7°C° 0.2 mm 4 mps 729 mmHg 93%
    13:00 -6°C° 0.2 mm 5 mps 729 mmHg 92%
    14:00 -6°C° 0.3 mm 5 mps 728 mmHg 93%
    15:00 -5°C° 0.3 mm 5 mps 728 mmHg 93%
    16:00 -5°C° 0.3 mm 5 mps 727 mmHg 93%
    17:00 -5°C° 0.4 mm 6 mps 727 mmHg 92%
    18:00 -5°C° 0.4 mm 6 mps 726 mmHg 92%
    19:00 -4°C° 0.4 mm 7 mps 726 mmHg 91%
    20:00 -4°C° 0.4 mm 7 mps 725 mmHg 91%
    21:00 -4°C° 0.4 mm 7 mps 725 mmHg 91%
    22:00 -4°C° 0.4 mm 7 mps 724 mmHg 91%
    23:00 -4°C° 0.4 mm 7 mps 724 mmHg 91%
    Show more